Temp
-11 -11 -11 -11 -11 -12 -12 -11 -11 -11 -11 -11 -11 -11 -11 -11 -11 -11 -11 -11 -11 -11 -12 -12 -12 -12 -12 -12 -12 -12 -13 -13 -13 -13 -13 -13 -13 -13 -13 -13 -13 -13 -13 -13 -12 -12 -12 -12 -12 -12 -12 -12 -12 -12 -12 -13 -13 -13 -13 -13 -13 -13
-12 -12 -11 -11 -11 -12 -12 -12 -11 -12 -12 -11 -11 -11 -11 -12 -12 -11 -11 -11 -11 -11 -12 -12 -12 -12 -12 -12 -12 -13 -13 -13 -13 -13 -13 -13 -13 -13 -13 -13 -13 -13 -13 -13 -13 -13 -13 -12 -12 -13 -13 -13 -13 -12 -12 -13 -13 -13 -13 -13 -13 -13
-12 -12 -12 -12 -12 -12 -12 -12 -12 -12 -12 -12 -12 -12 -12 -12 -12 -12 -12 -12 -12 -12 -12 -12 -12 -12 -12 -12 -13 -13 -13 -13 -13 -14 -13 -13 -13 -13 -13 -13 -13 -13 -13 -13 -13 -13 -13 -13 -13 -13 -13 -13 -13 -13 -12 -13 -13 -13 -13 -13 -13 -13
-12 -12 -12 -12 -12 -12 -12 -12 -12 -12 -12 -12 -12 -12 -12 -12 -12 -12 -12 -12 -12 -12 -12 -12 -12 -12 -12 -13 -13 -13 -13 -13 -13 -14 -14 -14 -13 -13 -13 -13 -13 -13 -13 -13 -13 -13 -13 -13 -13 -13 -13 -13 -13 -13 -13 -13 -13 -13 -13 -13 -13 -13
-12 -12 -12 -12 -12 -12 -12 -12 -12 -12 -12 -12 -12 -12 -12 -12 -12 -12 -12 -12 -12 -12 -12 -12 -13 -13 -13 -13 -13 -13 -13 -13 -13 -13 -14 -14 -14 -13 -13 -13 -13 -13 -13 -13 -13 -13 -13 -13 -13 -13 -13 -13 -13 -13 -13 -13 -13 -13 -13 -13 -13 -13
-12 -12 -12 -12 -12 -12 -12 -12 -13 -13 -13 -13 -13 -12 -12 -12 -12 -12 -12 -12 -12 -12 -13 -13 -13 -13 -13 -13 -13 -13 -13 -13 -13 -13 -13 -14 -14 -14 -13 -13 -13 -13 -13 -13 -13 -14 -14 -14 -13 -13 -13 -13 -13 -13 -13 -13 -13 -13 -13 -13 -13 -13
-12 -12 -12 -13 -12 -12 -13 -13 -13 -13 -13 -13 -13 -13 -13 -13 -13 -13 -13 -13 -13 -13 -13 -13 -13 -13 -13 -13 -13 -13 -13 -13 -13 -13 -13 -13 -13 -14 -13 -13 -14 -13 -13 -13 -13 -14 -14 -14 -14 -13 -13 -13 -13 -13 -13 -13 -13 -13 -13 -13 -13 -13
-12 -12 -13 -13 -13 -13 -13 -13 -13 -13 -13 -13 -13 -13 -13 -13 -13 -13 -13 -13 -13 -13 -13 -13 -13 -13 -13 -13 -13 -13 -13 -13 -13 -13 -13 -13 -13 -13 -13 -13 -14 -14 -13 -13 -13 -13 -14 -14 -14 -14 -13 -13 -13 -13 -13 -13 -13 -13 -13 -13 -13 -13
-12 -13 -13 -13 -13 -13 -13 -13 -13 -13 -13 -13 -13 -13 -13 -13 -13 -13 -13 -13 -13 -13 -13 -13 -13 -13 -13 -13 -13 -13 -13 -13 -13 -13 -13 -13 -13 -13 -13 -13 -14 -14 -14 -13 -13 -13 -14 -14 -14 -14 -14 -13 -13 -13 -13 -13 -13 -13 -13 -13 -13 -13
-13 -13 -13 -13 -13 -13 -13 -13 -13 -13 -13 -13 -13 -13 -13 -13 -13 -13 -13 -13 -13 -13 -13 -13 -13 -13 -13 -13 -13 -13 -13 -13 -13 -13 -13 -13 -13 -13 -13 -14 -14 -14 -14 -14 -13 -13 -14 -14 -14 -14 -14 -14 -13 -13 -13 -13 -13 -13 -13 -13 -13 -13
-13 -13 -13 -13 -13 -13 -13 -13 -13 -13 -13 -13 -13 -13 -13 -13 -13 -13 -13 -13 -13 -13 -13 -13 -13 -13 -13 -13 -13 -13 -13 -13 -13 -13 -13 -13 -14 -14 -14 -14 -14 -13 -14 -14 -14 -14 -14 -14 -14 -14 -14 -14 -13 -13 -13 -13 -13 -13 -13 -13 -13 -13
-13 -13 -13 -13 -13 -13 -13 -13 -13 -13 -13 -13 -13 -13 -13 -13 -13 -13 -13 -13 -13 -13 -13 -13 -13 -13 -13 -13 -13 -13 -13 -13 -13 -13 -14 -14 -14 -14 -14 -14 -14 -13 -13 -14 -14 -14 -14 -14 -14 -14 -14 -14 -14 -13 -13 -13 -13 -13 -13 -13 -13 -13
-13 -13 -13 -13 -13 -13 -13 -13 -13 -13 -13 -13 -13 -13 -13 -13 -13 -13 -13 -13 -13 -13 -13 -13 -13 -13 -13 -13 -13 -13 -13 -14 -14 -14 -14 -14 -13 -14 -14 -14 -14 -14 -14 -14 -14 -14 -14 -14 -14 -14 -14 -14 -14 -14 -13 -13 -13 -13 -13 -13 -13 -13
-13 -13 -13 -13 -13 -13 -13 -13 -13 -13 -13 -13 -13 -13 -13 -13 -13 -13 -13 -13 -13 -13 -13 -13 -13 -13 -13 -13 -13 -13 -13 -14 -14 -14 -14 -14 -14 -14 -14 -14 -14 -14 -14 -14 -14 -14 -14 -14 -15 -15 -14 -14 -14 -14 -14 -13 -13 -13 -13 -13 -13 -13
-13 -13 -13 -13 -13 -13 -13 -13 -13 -13 -13 -13 -13 -13 -13 -13 -13 -13 -13 -13 -13 -13 -13 -13 -13 -13 -13 -13 -13 -13 -13 -14 -14 -14 -14 -14 -14 -14 -14 -14 -14 -14 -14 -14 -14 -14 -14 -14 -15 -15 -15 -14 -14 -14 -14 -14 -13 -13 -13 -13 -13 -13
-14 -13 -13 -13 -13 -13 -13 -13 -13 -13 -13 -13 -13 -13 -13 -13 -13 -13 -13 -13 -13 -13 -13 -13 -13 -13 -13 -13 -13 -13 -13 -13 -13 -13 -14 -14 -13 -14 -14 -14 -14 -14 -14 -14 -13 -14 -14 -14 -14 -15 -15 -14 -14 -14 -14 -14 -14 -14 -13 -13 -13 -13
-14 -14 -13 -13 -13 -13 -13 -13 -13 -13 -13 -13 -13 -13 -13 -13 -13 -13 -13 -13 -13 -13 -13 -13 -13 -13 -13 -13 -13 -13 -13 -13 -13 -14 -14 -13 -14 -14 -14 -14 -14 -13 -13 -13 -13 -13 -14 -14 -14 -14 -14 -14 -14 -14 -14 -14 -14 -14 -14 -13 -13 -13
-14 -14 -14 -13 -13 -13 -13 -13 -13 -13 -14 -13 -13 -13 -13 -13 -13 -13 -13 -13 -13 -13 -13 -13 -13 -13 -13 -13 -13 -13 -13 -13 -13 -14 -14 -14 -14 -14 -14 -14 -14 -13 -13 -13 -13 -13 -13 -14 -14 -13 -14 -14 -14 -14 -14 -14 -14 -14 -14 -13 -13 -13
-14 -14 -14 -14 -13 -14 -14 -14 -14 -14 -14 -14 -14 -14 -13 -13 -13 -13 -13 -13 -13 -13 -13 -13 -13 -13 -13 -13 -13 -13 -13 -13 -13 -14 -14 -14 -14 -14 -13 -14 -14 -13 -13 -13 -13 -13 -13 -14 -13 -13 -13 -14 -13 -13 -14 -14 -14 -14 -14 -14 -14 -13
-14 -14 -14 -14 -14 -14 -14 -14 -14 -14 -14 -14 -14 -14 -14 -14 -13 -13 -13 -13 -13 -13 -13 -13 -13 -13 -13 -13 -13 -13 -13 -13 -13 -13 -13 -14 -14 -14 -13 -13 -14 -14 -13 -14 -14 -13 -13 -14 -13 -13 -13 -14 -13 -13 -14 -14 -14 -14 -14 -14 -14 -14
-14 -14 -14 -14 -14 -14 -14 -14 -14 -14 -14 -14 -14 -14 -14 -14 -13 -13 -13 -13 -13 -13 -13 -13 -13 -13 -13 -13 -13 -13 -13 -13 -13 -13 -13 -13 -13 -14 -13 -13 -13 -13 -14 -14 -14 -13 -13 -14 -13 -13 -13 -13 -13 -13 -13 -14 -14 -14 -14 -14 -14 -14
-14 -14 -14 -14 -14 -14 -14 -14 -14 -14 -14 -14 -14 -14 -14 -14 -14 -13 -13 -13 -13 -13 -13 -13 -13 -13 -13 -13 -13 -13 -13 -13 -13 -13 -13 -13 -13 -13 -14 -13 -13 -13 -14 -13 -14 -14 -14 -14 -13 -13 -13 -13 -13 -13 -13 -14 -14 -14 -14 -14 -14 -14
-14 -14 -14 -14 -14 -14 -14 -14 -14 -14 -14 -14 -14 -14 -14 -14 -14 -14 -13 -13 -13 -13 -13 -13 -13 -13 -13 -13 -13 -13 -13 -13 -13 -13 -13 -13 -13 -13 -14 -13 -13 -13 -13 -13 -14 -14 -14 -14 -13 -13 -13 -13 -13 -13 -13 -13 -14 -14 -14 -14 -14 -14
-14 -14 -14 -14 -14 -14 -14 -14 -14 -14 -14 -14 -14 -14 -14 -14 -14 -14 -14 -13 -13 -13 -13 -13 -13 -13 -13 -13 -13 -13 -13 -13 -13 -13 -13 -13 -13 -13 -13 -13 -13 -13 -13 -13 -14 -14 -14 -14 -13 -13 -13 -13 -13 -13 -13 -13 -13 -13 -14 -14 -14 -13
-15 -15 -14 -14 -14 -14 -14 -14 -14 -14 -14 -14 -14 -14 -14 -14 -14 -14 -14 -14 -14 -13 -13 -13 -13 -13 -13 -13 -13 -13 -13 -13 -13 -13 -13 -13 -13 -13 -13 -13 -13 -13 -13 -13 -13 -14 -14 -14 -14 -14 -13 -13 -13 -13 -13 -13 -13 -13 -13 -13 -13 -13
-15 -15 -15 -14 -14 -14 -14 -14 -14 -14 -14 -14 -14 -14 -14 -14 -14 -14 -14 -14 -14 -14 -14 -13 -13 -13 -13 -13 -13 -13 -13 -13 -13 -13 -13 -13 -14 -14 -14 -14 -13 -13 -13 -13 -13 -14 -14 -14 -14 -14 -14 -14 -14 -14 -13 -13 -13 -13 -13 -13 -13 -13
-15 -15 -15 -15 -14 -14 -14 -14 -14 -14 -14 -14 -14 -14 -14 -14 -14 -14 -14 -14 -14 -14 -14 -14 -14 -14 -13 -13 -13 -13 -13 -13 -13 -13 -13 -14 -14 -14 -14 -14 -14 -13 -13 -13 -13 -13 -14 -14 -14 -14 -14 -14 -14 -14 -14 -13 -13 -13 -14 -14 -13 -13
-15 -15 -15 -15 -15 -15 -15 -15 -14 -14 -14 -14 -14 -14 -14 -14 -14 -14 -14 -14 -14 -14 -14 -14 -14 -14 -14 -14 -14 -14 -14 -14 -14 -14 -14 -14 -14 -14 -14 -14 -14 -14 -13 -13 -13 -13 -13 -14 -14 -14 -14 -14 -14 -14 -14 -14 -13 -13 -14 -14 -14 -14
-15 -15 -15 -15 -15 -15 -15 -15 -15 -15 -15 -15 -15 -14 -14 -14 -14 -14 -14 -14 -14 -14 -14 -14 -14 -14 -14 -14 -14 -14 -14 -14 -14 -14 -14 -14 -14 -14 -14 -14 -14 -14 -14 -13 -13 -13 -13 -14 -14 -14 -14 -14 -14 -14 -14 -14 -14 -14 -14 -14 -14 -13
-15 -15 -15 -15 -15 -15 -15 -15 -15 -15 -15 -15 -15 -15 -15 -15 -15 -15 -15 -15 -14 -14 -14 -14 -14 -14 -14 -14 -14 -14 -14 -14 -14 -14 -14 -14 -14 -14 -14 -14 -14 -14 -14 -14 -13 -13 -13 -13 -14 -14 -14 -14 -14 -14 -14 -14 -14 -14 -14 -14 -14 -13
-16 -16 -16 -16 -16 -15 -15 -15 -15 -15 -15 -15 -15 -15 -15 -15 -15 -15 -15 -15 -15 -15 -15 -15 -15 -15 -15 -14 -14 -14 -14 -14 -14 -14 -14 -15 -15 -15 -15 -15 -14 -14 -14 -14 -14 -13 -13 -13 -13 -13 -13 -14 -14 -14 -14 -14 -14 -14 -14 -14 -14 -14
-17 -16 -16 -16 -16 -16 -16 -16 -16 -16 -15 -15 -15 -15 -15 -15 -15 -15 -15 -15 -15 -15 -15 -15 -15 -15 -15 -15 -15 -15 -15 -15 -15 -15 -15 -15 -15 -15 -15 -15 -15 -14 -14 -14 -14 -14 -14 -14 -14 -14 -13 -13 -14 -14 -14 -14 -14 -14 -14 -14 -14 -14
-17 -17 -17 -17 -17 -17 -16 -16 -16 -16 -16 -16 -16 -16 -16 -15 -15 -15 -15 -15 -15 -15 -15 -15 -15 -15 -15 -15 -15 -15 -15 -15 -15 -15 -15 -15 -15 -15 -15 -15 -15 -15 -14 -14 -14 -14 -14 -14 -14 -14 -14 -14 -14 -14 -14 -14 -14 -14 -14 -14 -14 -14
-17 -17 -17 -17 -17 -17 -17 -16 -16 -16 -16 -16 -16 -16 -16 -16 -16 -16 -16 -15 -15 -15 -15 -15 -15 -16 -16 -16 -16 -15 -15 -15 -15 -15 -15 -15 -15 -15 -15 -15 -15 -15 -15 -15 -14 -14 -14 -14 -14 -14 -14 -14 -14 -14 -14 -14 -14 -14 -14 -14 -14 -14
-17 -17 -17 -17 -17 -17 -17 -17 -17 -16 -16 -16 -16 -16 -16 -16 -16 -16 -16 -16 -16 -16 -16 -16 -16 -16 -16 -16 -16 -16 -16 -16 -16 -16 -16 -16 -16 -16 -16 -16 -15 -15 -15 -15 -15 -15 -15 -14 -14 -14 -14 -14 -14 -14 -14 -14 -14 -14 -14 -14 -14 -14
-18 -17 -17 -17 -17 -17 -17 -17 -17 -17 -17 -17 -17 -16 -16 -16 -16 -16 -16 -16 -16 -16 -16 -16 -16 -16 -16 -16 -16 -16 -16 -16 -16 -16 -16 -16 -16 -16 -16 -16 -16 -16 -15 -15 -15 -15 -15 -15 -15 -15 -15 -14 -14 -14 -14 -14 -14 -14 -14 -14 -14 -14
-18 -18 -18 -17 -17 -17 -17 -17 -17 -17 -17 -17 -17 -17 -17 -17 -17 -17 -17 -17 -16 -16 -16 -16 -17 -17 -16 -16 -16 -16 -16 -16 -16 -16 -16 -16 -16 -16 -16 -16 -16 -16 -16 -16 -16 -15 -15 -15 -15 -15 -15 -15 -15 -15 -14 -14 -14 -14 -14 -14 -14 -14
Height
5820 5820 5820 5821 5820 5819 5820 5821 5821 5820 5821 5820 5821 5821 5822 5823 5823 5823 5824 5823 5823 5822 5820 5820 5821 5821 5821 5822 5822 5822 5822 5822 5822 5823 5824 5824 5823 5823 5823 5823 5824 5824 5825 5826 5827 5829 5831 5832 5834 5835 5837 5838 5839 5840 5841 5842 5843 5845 5846 5847 5849 5851
5818 5818 5818 5819 5819 5817 5818 5818 5818 5818 5818 5818 5818 5819 5820 5820 5821 5821 5822 5822 5822 5822 5821 5819 5818 5818 5820 5820 5821 5821 5821 5821 5822 5822 5823 5823 5823 5822 5822 5821 5822 5823 5823 5824 5825 5826 5828 5831 5832 5833 5835 5836 5838 5839 5840 5841 5842 5843 5844 5846 5847 5849
5815 5816 5816 5816 5816 5815 5815 5816 5815 5815 5816 5816 5816 5817 5818 5818 5819 5819 5819 5820 5820 5821 5821 5819 5817 5817 5818 5818 5819 5819 5819 5819 5820 5821 5821 5821 5821 5821 5820 5820 5820 5821 5822 5822 5823 5824 5826 5829 5831 5832 5833 5834 5835 5837 5838 5839 5840 5841 5842 5844 5845 5847
5813 5813 5814 5814 5814 5813 5813 5813 5813 5813 5813 5813 5814 5815 5816 5816 5817 5817 5817 5817 5818 5819 5819 5817 5816 5816 5816 5817 5817 5817 5818 5818 5818 5818 5819 5820 5820 5820 5819 5819 5819 5819 5820 5821 5822 5823 5824 5827 5829 5830 5831 5832 5834 5835 5836 5837 5838 5839 5841 5842 5843 5845
5811 5811 5811 5811 5811 5811 5811 5811 5811 5811 5811 5811 5812 5812 5813 5814 5815 5815 5815 5815 5816 5816 5816 5816 5816 5815 5815 5815 5815 5816 5816 5816 5816 5816 5817 5818 5818 5819 5818 5818 5818 5818 5818 5819 5820 5821 5823 5825 5827 5829 5830 5831 5832 5833 5835 5835 5836 5838 5839 5840 5841 5843
5808 5808 5809 5809 5809 5809 5809 5808 5808 5809 5809 5809 5810 5810 5811 5812 5812 5813 5813 5813 5813 5814 5814 5815 5815 5814 5814 5814 5814 5814 5814 5814 5814 5814 5814 5815 5816 5816 5817 5817 5817 5817 5817 5817 5818 5819 5821 5823 5825 5827 5828 5829 5830 5832 5833 5833 5834 5836 5837 5838 5840 5841
5805 5806 5806 5806 5806 5806 5806 5806 5806 5807 5807 5807 5808 5808 5809 5809 5810 5811 5811 5811 5812 5812 5813 5813 5813 5813 5812 5812 5812 5812 5812 5812 5812 5812 5812 5813 5813 5814 5815 5815 5815 5815 5816 5816 5816 5817 5819 5821 5822 5824 5826 5828 5828 5829 5831 5832 5832 5833 5835 5836 5837 5838
5803 5803 5804 5804 5804 5804 5804 5804 5804 5805 5805 5805 5806 5807 5807 5808 5808 5809 5809 5810 5810 5810 5811 5811 5811 5811 5810 5810 5810 5810 5810 5810 5810 5811 5811 5811 5812 5812 5813 5814 5814 5814 5814 5814 5815 5815 5816 5818 5820 5822 5824 5826 5826 5827 5829 5830 5831 5832 5833 5834 5835 5836
5800 5801 5801 5801 5801 5801 5802 5802 5802 5802 5803 5803 5804 5805 5805 5806 5807 5807 5807 5808 5808 5809 5809 5809 5809 5809 5809 5808 5808 5808 5808 5808 5808 5809 5810 5810 5811 5811 5811 5811 5812 5813 5813 5813 5813 5814 5814 5815 5817 5819 5821 5823 5824 5825 5827 5828 5829 5830 5831 5832 5833 5834
5797 5798 5799 5799 5799 5799 5799 5800 5800 5800 5801 5802 5802 5803 5804 5804 5805 5805 5806 5806 5806 5806 5807 5807 5807 5807 5807 5807 5806 5806 5806 5806 5806 5807 5807 5808 5809 5810 5809 5809 5810 5811 5811 5811 5811 5811 5812 5813 5815 5817 5818 5821 5822 5823 5824 5826 5827 5828 5829 5830 5831 5832
5795 5795 5796 5796 5797 5797 5797 5797 5798 5798 5799 5800 5801 5801 5802 5802 5803 5804 5804 5804 5804 5804 5804 5805 5805 5805 5805 5805 5804 5804 5804 5804 5804 5804 5805 5805 5806 5807 5808 5808 5808 5809 5809 5809 5809 5809 5810 5811 5813 5814 5816 5818 5820 5821 5822 5823 5824 5825 5827 5828 5829 5830
5793 5793 5794 5794 5794 5795 5795 5795 5796 5796 5797 5798 5799 5799 5800 5801 5801 5802 5802 5803 5803 5803 5803 5802 5802 5803 5803 5803 5802 5802 5802 5802 5802 5803 5803 5802 5803 5804 5805 5806 5806 5807 5807 5808 5808 5808 5808 5809 5810 5812 5813 5815 5817 5818 5819 5821 5822 5823 5824 5825 5827 5828
5790 5791 5791 5792 5792 5793 5793 5793 5793 5794 5795 5796 5797 5797 5798 5799 5799 5800 5800 5800 5801 5801 5801 5800 5800 5800 5800 5800 5800 5799 5799 5800 5800 5801 5800 5800 5800 5801 5802 5804 5804 5804 5805 5806 5806 5807 5807 5807 5808 5809 5811 5812 5814 5815 5817 5818 5819 5820 5822 5823 5824 5826
5788 5789 5789 5789 5790 5790 5791 5791 5791 5792 5793 5794 5795 5795 5796 5796 5797 5797 5797 5798 5798 5798 5798 5798 5797 5797 5798 5798 5797 5797 5797 5797 5798 5798 5798 5798 5798 5798 5800 5801 5801 5802 5802 5803 5805 5805 5805 5805 5805 5806 5808 5810 5811 5812 5814 5816 5817 5818 5820 5821 5822 5823
5786 5786 5787 5787 5787 5788 5788 5789 5789 5790 5791 5792 5792 5793 5794 5794 5794 5794 5795 5795 5796 5796 5796 5795 5794 5794 5795 5795 5795 5794 5794 5794 5795 5795 5795 5796 5796 5796 5797 5798 5799 5799 5800 5801 5802 5802 5802 5802 5802 5802 5804 5806 5808 5809 5811 5813 5815 5816 5817 5819 5820 5821
5784 5784 5784 5785 5785 5785 5786 5786 5787 5788 5789 5789 5790 5791 5792 5792 5792 5792 5792 5793 5793 5793 5793 5792 5792 5792 5792 5792 5792 5792 5792 5792 5792 5793 5794 5794 5794 5794 5795 5796 5796 5796 5797 5798 5799 5799 5799 5799 5799 5799 5801 5802 5804 5805 5807 5809 5811 5812 5814 5816 5817 5819
5781 5782 5782 5782 5782 5783 5783 5784 5785 5786 5786 5787 5788 5789 5789 5789 5789 5790 5790 5790 5790 5790 5790 5790 5790 5789 5789 5789 5790 5790 5790 5790 5790 5790 5791 5791 5791 5792 5793 5793 5793 5794 5794 5795 5796 5796 5796 5796 5796 5797 5799 5800 5800 5801 5803 5805 5807 5809 5811 5813 5815 5816
5779 5779 5779 5779 5780 5780 5781 5781 5782 5783 5784 5785 5786 5786 5787 5787 5787 5787 5787 5788 5788 5788 5788 5788 5788 5787 5787 5787 5787 5788 5788 5787 5787 5787 5788 5789 5789 5789 5789 5790 5791 5791 5792 5792 5793 5794 5794 5794 5794 5795 5796 5797 5798 5799 5799 5802 5804 5806 5808 5810 5812 5813
5776 5777 5777 5777 5777 5777 5778 5779 5779 5780 5781 5782 5783 5784 5784 5784 5785 5785 5785 5785 5785 5785 5786 5785 5785 5785 5785 5785 5785 5786 5785 5785 5785 5785 5786 5786 5786 5786 5786 5788 5789 5789 5789 5790 5791 5791 5792 5792 5792 5793 5793 5794 5796 5796 5796 5798 5800 5802 5805 5806 5808 5809
5774 5774 5774 5774 5774 5775 5776 5776 5777 5778 5779 5779 5780 5781 5781 5782 5782 5782 5782 5782 5782 5783 5783 5783 5783 5783 5783 5783 5783 5783 5783 5782 5782 5783 5784 5784 5784 5784 5784 5785 5786 5786 5787 5787 5788 5789 5789 5789 5790 5790 5790 5791 5793 5793 5793 5794 5796 5798 5800 5802 5803 5805
5771 5772 5772 5772 5772 5773 5773 5774 5775 5775 5776 5777 5777 5778 5778 5779 5779 5779 5779 5779 5780 5780 5780 5780 5780 5780 5781 5781 5781 5780 5780 5780 5780 5780 5781 5782 5782 5782 5782 5782 5782 5783 5784 5784 5785 5785 5786 5786 5787 5787 5787 5788 5789 5790 5790 5790 5792 5794 5795 5797 5799 5801
5769 5769 5770 5770 5770 5771 5771 5772 5773 5773 5774 5774 5774 5775 5775 5776 5776 5776 5777 5777 5777 5777 5777 5777 5778 5778 5778 5778 5778 5778 5777 5777 5777 5777 5778 5779 5779 5779 5779 5779 5779 5780 5781 5781 5781 5782 5782 5783 5783 5784 5784 5785 5786 5786 5787 5787 5788 5789 5790 5793 5795 5797
5766 5767 5767 5768 5768 5768 5769 5769 5770 5771 5771 5771 5772 5772 5772 5773 5773 5773 5773 5774 5774 5774 5774 5774 5775 5775 5775 5775 5775 5775 5775 5774 5774 5775 5775 5776 5776 5776 5776 5777 5777 5778 5778 5778 5778 5778 5779 5780 5780 5781 5781 5781 5781 5782 5783 5784 5785 5785 5786 5788 5790 5792
5763 5764 5765 5765 5766 5766 5766 5767 5767 5768 5768 5768 5769 5769 5769 5770 5770 5770 5770 5770 5770 5771 5771 5771 5772 5772 5772 5772 5772 5772 5772 5771 5771 5771 5772 5773 5773 5773 5773 5774 5774 5775 5775 5775 5774 5775 5776 5776 5777 5778 5778 5777 5777 5778 5778 5779 5780 5781 5782 5784 5786 5787
5761 5761 5762 5762 5763 5763 5763 5764 5765 5765 5765 5765 5765 5766 5766 5766 5766 5767 5767 5767 5767 5767 5768 5768 5768 5769 5769 5769 5769 5769 5769 5768 5768 5767 5768 5769 5770 5770 5770 5770 5771 5771 5771 5771 5771 5772 5773 5773 5773 5774 5774 5774 5774 5774 5774 5776 5777 5777 5778 5780 5781 5783
5758 5758 5759 5759 5760 5761 5760 5761 5761 5762 5762 5762 5762 5762 5763 5763 5763 5763 5763 5763 5764 5764 5764 5765 5765 5766 5766 5766 5766 5766 5766 5765 5765 5764 5764 5764 5766 5767 5766 5767 5767 5768 5768 5768 5768 5769 5770 5770 5770 5770 5771 5771 5771 5772 5772 5773 5773 5774 5775 5776 5777 5779
5756 5755 5756 5756 5757 5758 5757 5757 5758 5758 5759 5759 5759 5759 5759 5759 5759 5759 5760 5760 5760 5761 5761 5761 5762 5762 5763 5763 5763 5763 5763 5762 5762 5761 5760 5761 5762 5763 5763 5764 5764 5764 5765 5764 5765 5766 5767 5767 5767 5768 5769 5769 5769 5769 5770 5770 5770 5771 5772 5772 5773 5774
5752 5752 5752 5753 5754 5755 5754 5754 5755 5755 5755 5756 5756 5756 5756 5756 5756 5756 5757 5757 5757 5757 5758 5758 5758 5759 5759 5760 5760 5760 5759 5759 5759 5758 5758 5757 5758 5760 5760 5760 5761 5761 5761 5761 5761 5762 5763 5763 5764 5765 5766 5766 5766 5766 5767 5767 5768 5768 5769 5770 5771 5771
5749 5749 5749 5749 5750 5752 5751 5751 5752 5752 5752 5753 5753 5753 5753 5753 5754 5754 5754 5754 5755 5755 5755 5755 5755 5756 5756 5757 5757 5757 5757 5756 5756 5756 5755 5755 5755 5756 5757 5757 5758 5758 5758 5758 5758 5759 5760 5760 5761 5762 5762 5763 5763 5764 5765 5764 5765 5765 5766 5767 5768 5769
5746 5746 5745 5745 5747 5748 5748 5748 5749 5749 5749 5750 5750 5750 5750 5751 5751 5751 5752 5752 5752 5752 5752 5753 5753 5753 5753 5754 5754 5754 5754 5754 5754 5753 5753 5752 5752 5753 5754 5754 5755 5755 5755 5755 5755 5756 5756 5757 5758 5759 5759 5760 5760 5761 5762 5762 5762 5763 5763 5764 5765 5766
5743 5743 5743 5742 5743 5744 5745 5746 5746 5746 5746 5747 5747 5747 5747 5748 5748 5748 5749 5749 5750 5750 5750 5750 5751 5751 5751 5751 5751 5751 5751 5751 5751 5751 5750 5750 5750 5750 5751 5751 5752 5752 5752 5752 5752 5752 5753 5754 5755 5756 5757 5757 5758 5759 5759 5759 5760 5760 5761 5762 5762 5763
5740 5741 5740 5740 5740 5741 5742 5743 5743 5744 5744 5744 5744 5745 5745 5745 5745 5746 5746 5746 5747 5747 5748 5748 5748 5748 5748 5748 5748 5748 5748 5748 5748 5748 5748 5748 5748 5748 5748 5748 5749 5749 5750 5750 5750 5750 5750 5751 5752 5753 5754 5755 5756 5756 5757 5757 5758 5758 5759 5759 5760 5760
5738 5738 5739 5738 5738 5739 5740 5740 5741 5741 5741 5741 5742 5742 5742 5742 5743 5743 5743 5744 5744 5745 5745 5746 5746 5746 5746 5746 5746 5746 5746 5746 5746 5745 5745 5745 5745 5745 5745 5746 5746 5747 5747 5747 5748 5748 5748 5749 5750 5751 5752 5752 5753 5754 5754 5755 5756 5756 5756 5757 5758 5758
5736 5736 5736 5736 5736 5737 5737 5738 5738 5738 5739 5739 5739 5740 5740 5740 5740 5740 5741 5741 5742 5743 5743 5743 5743 5744 5744 5744 5744 5744 5743 5743 5743 5743 5743 5743 5743 5743 5743 5743 5743 5744 5744 5745 5746 5746 5747 5747 5748 5748 5749 5750 5751 5751 5752 5753 5753 5754 5754 5755 5756 5756
5734 5734 5734 5735 5735 5735 5735 5735 5735 5736 5736 5736 5737 5737 5737 5738 5738 5738 5739 5739 5740 5740 5741 5741 5742 5742 5742 5742 5742 5742 5741 5741 5741 5741 5741 5740 5740 5740 5740 5741 5741 5741 5742 5742 5743 5744 5744 5745 5746 5746 5747 5748 5748 5749 5750 5750 5751 5751 5752 5753 5754 5754
5731 5732 5732 5732 5732 5732 5732 5732 5732 5733 5733 5733 5734 5734 5735 5735 5735 5736 5736 5737 5737 5738 5739 5739 5740 5740 5740 5740 5739 5739 5739 5739 5739 5739 5739 5738 5738 5738 5738 5738 5738 5739 5739 5740 5740 5741 5742 5742 5743 5744 5745 5745 5746 5747 5747 5748 5749 5749 5750 5751 5752 5752
5729 5729 5729 5729 5729 5729 5730 5729 5729 5730 5730 5730 5731 5731 5732 5733 5733 5734 5734 5735 5735 5735 5736 5736 5737 5737 5737 5737 5737 5737 5737 5736 5736 5736 5736 5736 5736 5736 5736 5736 5736 5736 5737 5737 5738 5738 5739 5740 5740 5741 5742 5743 5743 5744 5745 5746 5746 5747 5748 5749 5750 5751
Wind_Speed
27 27 27 26 25 24 23 22 20 20 19 18 17 15 14 15 16 16 15 16 16 15 15 14 14 14 14 13 13 13 14 16 16 14 16 20 20 19 20 20 21 22 19 16 18 20 24 26 25 23 21 19 18 19 21 23 24 25 26 26 24 23
27 27 26 24 23 23 22 21 19 19 18 18 17 16 15 16 17 17 16 16 17 16 15 15 13 11 11 12 11 12 14 15 16 15 15 18 19 17 17 18 18 21 21 17 19 22 24 27 26 25 22 20 19 19 20 22 24 25 26 26 26 26
26 25 24 23 23 22 21 20 19 18 18 19 18 17 17 17 18 17 17 17 17 16 15 15 14 12 11 10 11 13 14 15 16 16 15 17 19 18 16 16 15 17 22 19 19 23 26 28 27 26 24 22 20 19 19 21 24 26 27 27 27 27
25 24 23 22 22 22 21 20 19 19 19 20 19 18 18 18 19 18 18 18 17 16 15 15 14 12 11 10 11 14 15 16 17 17 17 18 19 19 17 17 16 15 19 21 19 23 27 28 27 26 25 22 20 19 19 21 23 26 27 27 28 28
25 24 23 22 22 21 21 20 20 20 20 21 20 20 19 19 19 18 18 17 16 15 14 13 12 11 11 11 12 14 16 17 18 19 19 19 19 19 19 19 19 16 16 20 21 22 26 28 27 27 25 23 21 19 19 20 22 24 26 27 28 29
26 25 23 22 22 21 21 21 21 21 21 22 21 21 20 19 19 17 17 17 16 15 13 12 11 11 11 10 12 15 16 17 18 20 20 21 20 20 20 20 22 21 17 18 22 23 25 28 28 27 26 25 22 21 20 20 21 24 26 27 28 29
26 25 24 23 22 22 22 22 21 22 22 22 22 21 20 19 19 18 17 17 16 15 14 11 10 11 11 11 13 14 15 17 18 20 21 22 22 21 21 21 21 23 21 18 20 23 25 27 28 28 27 26 24 23 21 21 21 23 25 27 28 29
26 26 25 23 22 23 23 22 22 23 23 23 22 21 20 20 19 18 18 17 17 16 14 12 12 12 12 13 13 14 15 16 18 19 20 21 22 21 22 23 22 22 23 20 19 23 26 27 29 29 28 28 27 25 23 22 22 23 25 27 28 28
25 25 24 22 22 24 23 23 23 23 24 24 23 21 20 20 19 19 18 18 18 17 15 15 14 14 15 15 15 16 16 16 17 18 20 21 22 22 22 23 24 24 24 23 21 22 26 29 29 30 30 30 29 27 25 23 23 23 24 26 27 28
22 22 22 21 22 23 24 24 24 24 24 24 23 22 21 20 20 19 18 18 19 17 16 16 16 16 16 17 17 18 18 17 17 18 19 20 21 22 22 22 24 24 24 25 24 24 26 29 30 30 31 31 30 29 27 26 25 24 25 26 27 27
21 21 20 20 21 23 24 24 24 24 24 24 24 23 21 21 20 19 18 18 19 19 18 18 19 18 18 18 19 19 19 18 18 18 18 19 19 20 22 22 23 24 25 24 25 24 25 28 31 31 31 31 31 31 30 29 27 26 25 26 27 27
20 20 20 20 20 22 23 24 25 25 24 24 24 23 22 21 20 19 19 19 20 21 21 21 21 21 20 19 20 20 20 19 18 18 17 16 16 18 21 22 23 24 25 25 24 24 24 27 31 32 31 31 32 33 32 31 29 27 26 26 27 27
20 21 20 20 20 21 23 24 25 25 25 25 24 23 22 21 20 20 21 21 21 22 23 23 24 23 22 21 22 22 21 20 19 18 16 15 16 17 20 21 23 23 25 26 26 26 25 27 31 33 32 32 32 34 33 32 31 29 28 27 26 26
22 22 22 22 22 22 23 25 26 26 25 25 24 23 22 21 21 21 22 22 22 23 24 24 25 24 23 23 23 23 23 22 20 19 19 18 17 18 19 20 22 24 25 25 25 27 28 28 32 33 32 32 32 33 34 33 32 31 29 28 27 27
24 24 24 24 24 24 24 25 26 27 26 25 24 23 22 21 21 22 22 22 22 23 23 24 25 25 23 23 23 23 24 23 22 22 22 21 20 19 20 20 22 23 25 25 25 27 29 30 33 36 33 32 32 32 33 34 33 33 32 30 29 28
25 26 26 27 27 26 26 25 26 26 26 25 24 24 22 22 22 22 22 22 22 22 23 24 24 24 23 23 23 23 24 25 24 24 23 22 22 21 22 23 23 23 24 25 25 27 29 30 32 36 36 33 33 32 32 34 35 35 34 33 32 29
25 26 27 28 28 28 27 26 26 26 26 25 24 24 23 22 22 22 22 22 22 22 22 23 23 23 23 23 23 23 24 25 25 25 23 23 24 23 23 24 24 24 24 24 25 26 29 28 27 32 36 35 35 35 33 33 35 36 36 35 33 32
26 26 27 28 29 29 28 27 27 26 26 25 25 24 23 23 23 23 23 23 23 22 22 22 22 23 23 23 23 23 24 25 25 26 25 24 24 24 25 25 23 24 24 24 25 26 28 28 26 29 34 36 37 38 37 34 33 35 36 36 35 35
27 27 27 29 30 30 29 28 28 27 27 26 25 25 24 24 24 24 24 23 23 23 22 22 22 23 23 24 24 24 25 26 26 26 26 26 26 26 26 25 24 25 25 25 25 26 27 28 27 28 32 36 37 39 40 38 35 34 35 37 38 38
27 28 29 30 31 30 30 29 29 28 27 27 26 26 26 26 26 26 25 24 24 24 23 23 23 23 23 24 24 25 26 27 27 27 27 26 27 27 26 25 25 26 27 27 27 26 27 29 29 30 33 36 37 39 42 42 39 37 36 37 39 40
26 27 28 30 31 31 31 30 29 29 29 29 28 28 28 28 28 27 27 26 26 25 25 24 23 23 23 23 24 25 27 28 28 28 27 26 26 27 27 27 27 27 28 28 29 29 30 30 29 29 30 33 35 38 42 44 43 42 40 39 38 40
26 26 27 28 30 31 31 31 30 30 30 30 30 30 30 30 30 29 28 28 27 27 26 25 25 24 23 23 24 25 26 28 28 29 29 29 29 29 29 29 29 29 28 28 30 32 32 31 30 28 27 29 33 36 40 42 44 45 45 42 39 39
27 26 26 26 26 28 30 30 31 31 31 32 31 32 31 31 30 30 29 29 29 28 28 27 26 25 25 24 25 25 27 28 28 29 30 30 30 30 31 31 31 30 29 29 30 30 30 30 30 29 28 28 30 33 38 40 42 45 47 46 44 42
28 27 26 26 25 25 27 28 28 29 30 31 31 31 31 30 30 30 30 30 29 29 28 28 27 26 26 26 26 26 27 28 28 29 29 29 30 30 31 31 31 31 31 31 31 29 28 29 28 26 25 24 22 24 32 38 40 43 45 46 47 46
28 27 28 27 26 26 26 26 26 27 27 28 29 30 30 30 30 30 30 30 29 29 29 28 28 27 27 27 27 27 27 28 29 29 30 29 29 30 30 30 29 30 30 31 31 30 29 29 27 25 23 22 19 18 23 30 35 40 43 45 45 44
28 28 28 28 27 26 27 27 26 26 26 27 27 28 28 29 29 29 29 29 29 29 29 29 28 27 27 27 28 28 28 28 29 30 30 30 29 29 29 30 29 28 29 30 31 31 30 29 27 26 25 24 21 18 18 21 24 29 36 43 45 43
28 29 29 28 27 26 27 27 26 26 26 26 26 26 27 27 27 28 28 28 28 28 28 28 28 27 27 27 28 28 28 28 29 29 30 30 29 28 28 29 28 28 28 29 30 30 30 30 28 27 26 26 24 21 19 20 20 20 24 33 41 45
29 29 30 29 28 27 28 28 27 26 26 26 26 25 26 25 26 26 26 27 27 27 27 27 27 27 26 27 27 28 28 28 28 29 29 29 28 27 27 27 27 27 27 28 29 28 29 30 30 29 29 29 29 25 23 23 22 20 20 23 31 39
29 29 29 30 28 27 28 28 27 27 26 25 25 25 25 25 24 24 24 25 25 25 26 26 26 26 26 26 27 27 27 27 27 28 28 28 27 26 25 25 26 25 26 27 27 27 28 30 31 31 31 32 32 30 29 28 27 25 21 20 26 33
29 28 29 29 28 27 28 28 27 27 26 25 24 24 24 24 23 23 23 23 23 23 23 24 24 25 25 25 26 26 26 25 26 26 26 26 26 24 23 23 24 24 24 25 26 26 27 28 29 30 31 32 33 32 32 32 31 29 27 23 22 27
28 27 28 29 28 27 27 26 26 26 25 24 23 23 23 22 22 22 21 21 21 21 21 21 22 23 24 24 25 25 24 24 24 24 24 24 24 23 22 22 22 23 23 24 25 25 25 25 26 27 29 30 31 31 31 31 31 31 30 27 24 23
26 26 27 28 28 27 25 25 25 25 24 23 22 21 21 22 21 21 21 20 20 20 19 19 20 21 22 23 23 23 23 22 23 23 23 23 22 21 21 21 21 21 22 22 23 24 24 24 24 25 26 27 28 28 28 28 29 29 28 27 26 24
25 26 27 27 26 25 24 24 24 24 23 23 21 21 20 21 21 21 21 20 19 19 19 18 19 19 20 21 21 21 21 21 21 22 22 22 22 21 20 20 20 20 21 21 22 22 23 23 23 23 23 24 25 25 25 25 25 26 26 26 26 25
25 26 26 26 25 24 23 23 23 24 23 23 22 22 21 21 21 21 21 20 20 19 18 18 17 17 18 18 19 19 20 20 20 21 22 22 22 21 20 19 19 19 19 20 21 21 21 21 21 21 22 22 23 23 23 24 23 23 23 23 24 24
25 25 26 26 24 23 22 21 21 22 22 22 22 22 22 21 21 21 21 21 20 19 18 17 17 17 17 17 18 17 18 18 19 20 21 22 22 21 21 20 19 19 19 19 19 20 20 20 20 20 20 21 21 21 21 22 22 21 21 21 22 22
24 24 25 25 23 22 21 20 20 20 20 20 21 21 21 21 21 21 21 21 21 20 20 19 18 18 18 18 17 17 16 17 17 18 19 21 22 22 21 21 20 20 19 19 19 19 19 20 20 20 20 20 21 21 21 21 22 21 20 20 20 20
24 24 24 24 23 22 21 20 20 20 19 18 19 19 19 20 20 20 20 20 21 21 21 20 20 19 19 19 18 18 17 16 16 17 18 19 21 22 22 22 22 21 21 20 20 20 20 20 20 20 20 20 21 21 22 22 22 22 22 21 20 20
Wind_Direction
269 270 272 275 279 280 278 276 274 268 262 258 256 253 248 245 244 245 247 250 259 268 272 277 274 268 265 263 258 248 243 243 243 235 232 235 231 231 237 245 246 227 210 205 206 207 208 205 202 203 205 211 214 212 213 212 210 211 210 207 206 207
267 268 272 275 277 277 276 275 271 264 258 252 249 246 245 245 246 246 246 249 255 260 265 275 278 270 267 263 255 243 239 240 243 240 233 235 237 234 233 239 246 235 220 209 204 204 207 206 203 202 204 207 214 216 214 214 212 211 210 209 207 207
266 268 271 272 273 273 273 271 264 258 252 247 244 242 240 241 244 245 246 247 250 254 258 263 269 273 272 263 252 239 236 238 239 240 239 239 242 243 238 237 245 243 230 216 205 203 204 204 203 202 203 206 211 216 217 216 214 212 210 210 209 208
266 266 267 267 268 269 267 263 256 250 244 243 241 238 236 237 240 242 246 248 247 252 256 258 265 270 264 251 244 240 238 239 237 236 237 240 244 247 249 245 245 247 236 223 208 203 204 204 204 204 203 206 208 213 218 218 216 214 212 211 211 210
266 265 264 264 265 264 260 254 247 241 238 238 238 237 235 234 236 237 241 247 250 253 256 258 261 260 255 247 242 242 241 240 240 237 233 235 239 243 249 251 248 246 236 225 212 203 204 204 204 206 205 205 207 211 216 218 218 216 215 214 213 212
264 265 264 263 263 260 255 248 240 235 234 234 236 236 234 234 236 236 238 244 248 252 255 257 257 254 251 246 241 242 243 242 242 238 235 234 235 235 240 247 250 250 245 230 216 204 204 205 204 208 208 206 207 210 214 216 217 217 216 216 216 214
261 262 263 263 261 257 252 245 236 231 231 233 234 233 233 233 234 236 239 243 246 248 251 254 256 256 252 246 244 245 246 248 247 243 239 235 235 233 233 238 244 249 251 240 221 209 205 206 206 208 210 209 208 211 213 215 217 217 218 218 218 217
259 259 261 261 258 255 250 244 234 229 230 231 232 231 229 230 232 236 239 243 246 247 249 248 248 251 252 252 252 252 253 254 253 251 246 240 238 236 233 233 236 242 248 247 233 217 207 206 210 210 211 211 211 212 214 216 217 218 219 220 221 221
261 259 259 258 254 252 247 241 234 229 229 230 231 230 228 228 231 235 239 243 245 246 247 247 245 247 251 255 257 259 259 259 258 258 255 249 243 240 235 232 233 237 243 246 243 231 214 207 210 213 213 213 213 213 213 216 219 219 220 221 223 223
260 257 256 254 251 248 244 239 234 230 229 231 232 231 230 230 232 235 239 245 250 251 250 250 249 248 250 255 259 261 262 263 265 264 262 256 248 243 238 233 231 233 238 243 245 242 227 212 210 214 216 215 215 216 214 215 218 220 221 222 225 225
258 256 254 252 249 246 242 237 234 231 230 230 232 232 233 234 235 239 243 248 255 258 257 256 255 254 254 256 259 261 263 266 267 268 266 259 251 244 241 236 231 230 233 239 244 246 239 225 215 213 217 218 217 218 218 216 217 219 221 223 225 226
258 256 253 249 246 243 240 237 234 232 230 230 231 232 234 237 240 244 248 252 257 260 260 259 259 258 258 257 258 260 262 263 265 268 266 261 254 245 242 239 234 231 231 234 239 243 244 237 225 217 216 219 220 221 220 219 219 220 222 224 226 227
255 254 252 248 244 240 238 237 235 233 230 231 232 234 237 240 244 248 251 255 258 260 261 262 261 259 258 257 258 260 261 260 262 264 260 258 258 250 244 240 237 235 234 233 234 238 242 239 230 223 219 219 223 225 223 223 222 221 223 225 227 229
252 252 252 250 247 242 238 237 236 234 231 231 234 237 241 244 248 251 253 256 258 259 261 261 261 260 258 257 258 260 260 259 260 260 257 258 260 256 249 244 243 241 239 237 235 236 238 236 231 226 222 220 223 227 227 226 225 225 225 227 229 231
251 252 252 251 250 247 242 238 235 234 233 234 237 240 243 248 252 254 256 257 257 258 259 259 260 259 257 255 256 258 259 259 259 258 259 262 264 260 253 248 247 245 243 241 237 236 235 234 229 223 222 222 222 226 229 228 228 228 228 228 229 230
251 251 252 251 251 250 246 241 236 234 234 235 239 243 246 250 254 255 257 257 257 256 256 257 257 258 256 253 253 255 257 260 260 260 260 263 264 260 254 250 249 247 245 242 239 239 236 235 231 223 221 222 222 224 228 230 229 229 229 229 230 230
252 251 250 251 251 250 248 244 239 235 235 237 241 246 249 253 256 256 257 257 257 256 254 255 255 255 255 253 253 254 257 260 262 263 263 264 263 260 257 254 252 250 249 246 243 242 241 240 236 225 222 225 225 223 224 228 230 230 231 231 231 232
253 251 250 250 250 249 248 245 241 238 238 240 244 248 252 255 257 257 256 255 255 256 254 254 253 254 254 254 254 255 258 261 263 263 262 261 259 259 259 257 254 253 251 248 245 243 243 243 237 225 223 226 230 229 224 225 229 231 231 231 231 232
254 252 250 250 250 250 248 246 244 242 242 245 248 251 254 257 259 258 256 255 256 256 255 254 254 254 255 256 257 257 259 260 261 261 261 261 257 255 257 258 256 254 253 251 247 243 240 240 236 229 226 226 230 233 230 225 227 229 231 231 231 232
255 252 250 250 251 251 250 248 248 248 249 250 253 256 258 259 260 259 258 257 257 257 256 255 255 255 256 257 258 258 259 259 260 261 262 261 258 255 255 256 255 255 256 253 249 245 238 237 238 235 233 230 229 233 233 229 226 227 228 230 231 232
258 255 252 251 252 253 253 251 251 252 252 254 255 258 259 260 259 259 258 257 257 257 257 256 256 257 258 258 258 259 260 260 261 261 260 261 261 259 257 256 255 256 257 254 251 246 240 239 243 242 239 235 232 234 236 234 230 228 227 228 231 233
262 258 255 253 252 253 254 253 252 252 253 254 256 257 258 258 258 258 257 257 256 256 257 257 258 259 259 260 260 260 261 261 262 262 262 262 262 261 259 257 258 257 257 258 255 248 244 245 246 244 243 241 237 235 236 236 234 233 231 229 229 232
264 261 259 257 255 255 254 254 253 253 253 254 255 256 257 257 257 257 256 256 256 256 257 258 259 259 260 262 262 262 263 263 264 264 264 263 263 262 260 260 261 259 258 261 261 256 252 253 250 245 248 250 245 239 235 235 235 235 234 231 230 231
265 264 263 262 260 259 257 255 254 253 254 254 255 255 256 256 256 256 255 255 256 256 257 258 259 260 260 262 263 264 265 266 266 266 265 263 263 264 263 261 262 261 261 260 261 261 260 260 256 250 251 253 250 241 233 232 233 234 233 232 232 232
264 264 263 263 261 260 260 259 257 255 255 255 255 255 255 255 255 254 254 255 256 256 257 258 258 259 260 261 263 264 265 267 267 267 266 264 263 263 263 262 261 261 262 260 259 261 262 264 261 255 253 252 251 245 232 230 234 233 231 231 233 235
262 262 262 262 261 259 260 260 260 258 257 256 255 255 254 254 253 253 253 254 255 256 257 258 258 259 260 261 263 264 264 265 266 267 267 266 264 263 262 262 261 260 260 260 259 259 260 263 264 259 258 259 261 256 240 236 239 237 233 230 230 231
262 262 261 260 259 259 260 261 260 259 257 255 254 252 252 252 252 253 254 255 257 258 259 259 260 260 261 262 263 264 264 264 264 264 265 266 265 263 262 261 260 259 258 258 258 257 257 259 261 260 259 261 265 264 254 247 244 239 234 229 226 227
264 263 262 261 259 258 259 260 259 257 255 252 251 250 249 250 251 253 255 258 260 261 262 262 262 262 262 262 263 263 263 263 263 263 263 264 264 262 261 260 259 258 257 257 256 256 255 255 257 258 259 261 264 266 263 258 251 241 233 224 220 223
264 264 265 264 262 259 258 258 257 256 253 251 249 248 249 250 251 253 255 257 259 261 262 263 263 264 263 263 263 262 262 261 261 262 263 264 265 264 261 260 259 258 257 257 256 254 252 252 253 255 257 260 262 263 264 264 263 258 251 234 217 215
260 262 264 266 264 260 257 256 255 254 252 251 249 249 249 251 252 254 256 256 258 259 261 264 266 266 265 264 263 262 261 260 259 260 262 264 266 266 263 260 258 258 257 257 256 254 252 250 250 252 254 257 259 261 262 264 266 265 263 256 236 222
258 260 262 264 264 261 257 254 253 253 252 251 251 251 252 253 254 255 257 257 258 259 260 263 265 267 266 265 263 262 261 259 258 258 260 262 265 266 265 262 258 257 256 256 257 256 254 251 250 250 251 254 256 257 259 261 264 266 266 264 258 246
259 260 261 262 262 261 257 253 252 252 252 252 252 253 254 255 256 257 257 258 258 258 258 260 263 265 266 265 263 262 261 261 260 259 260 261 264 265 265 263 259 256 255 253 254 255 254 253 251 250 250 251 254 256 257 259 261 264 266 265 264 260
260 260 261 261 262 262 259 255 254 254 252 253 254 255 256 257 258 259 260 259 258 257 256 257 259 263 264 263 262 261 261 260 260 261 262 262 263 263 263 263 260 257 254 252 251 251 252 252 251 250 250 251 253 255 256 258 260 261 262 262 263 262
262 261 261 260 262 265 265 261 258 257 255 255 256 257 259 259 260 261 262 263 262 260 258 257 258 261 263 263 262 261 260 259 259 259 261 262 262 262 260 259 258 256 254 252 251 250 249 249 249 248 248 250 253 254 255 257 259 259 258 257 257 259
264 263 263 263 265 266 266 264 259 258 258 257 258 259 261 263 264 265 266 267 268 267 265 263 263 265 266 266 264 262 261 260 259 258 258 259 260 260 259 256 255 253 252 251 250 250 249 248 248 247 247 248 251 253 253 256 258 257 255 254 253 254
267 268 267 267 267 264 263 263 263 262 260 259 260 260 263 266 269 270 271 270 270 270 270 269 268 269 269 270 268 266 264 263 262 260 259 257 257 257 256 254 253 251 250 249 249 249 249 249 249 249 248 247 249 251 252 252 255 257 255 252 251 252
269 270 268 268 267 265 265 268 269 266 264 262 261 261 263 265 267 269 271 272 271 270 269 268 268 268 268 269 270 269 268 266 265 264 262 261 260 258 257 254 252 250 248 248 248 249 249 249 249 250 250 249 249 250 252 252 253 255 256 254 251 250